Tracking 19199 objects as of 25-Jun-2018
HD Live streaming from Space Station
objects crossing your sky now

FENGYUN 1C DEB

Track FENGYUN 1C DEB now!
10-day predictions


NORAD ID: 38816
Int'l Code: 1999-025EVG
Perigee: 709.0 km
Apogee: 869.7 km
Inclination: 98.9 °
Period: 100.5 minutes
Semi major axis: 7160 km
RCS: 0.0094 m2 (small)
Launch date: May 10, 1999
Source: People's Republic of China (PRC)
Launch site: Taiyaun Space Center, China (TSC)

Note: This is SATELLITE DEBRIS
aabbcc
Your satellite tracking list
Your tracking list is empty




NASA's NSSDC Master Catalog

Two Line Element Set (TLE):
1 38816U 99025EVG 18175.33728331 +.00001130 +00000-0 +40209-3 0  9996
2 38816 098.8605 209.6726 0112264 107.5105 253.8383 14.32857283399489
Source of the keplerian elements: AFSPC